[[{"header":{"parameterUnit":"m.s-1","parameterCategory":2,"la1":30.2991,"la2":30.254,"lo1":-89.0895,"lo2":-89.0444,"dy":0.0017,"dx":0.0017,"nx":28,"ny":28,"refTime":"2023-10-10T09:00:00:Z","depth":"0","parameterNumber":2,"parameterNumberName":"U-component_of_CURRENTS"},"data":[0,0,0,0,0,0,0,0,0,0,0,0,0,0,0,0,0,0,0,0,0,0,0,0,0,0,0,0,0,0,0,0,0,0,0,0,0,0,0,0,0,0,0,0,0,0,0,0,0,0,0,0,0,0,0,0,0,0,-0.3016,-0.3017,0,-0.3058,-0.3058,-0.3058,-0.3026,-0.3025,-0.3024,-0.3024,-0.2969,-0.2968,-0.2967,0,0,0,0,0,0,0,0,0,0,0,0,0,-0.2929,-0.293,-0.3016,-0.3017,-0.3018,-0.3058,-0.3058,-0.3058,-0.3026,-0.3025,-0.3024,-0.3023,-0.2969,-0.2968,-0.2967,0,0,0,0,0,0,0,0,0,0,0,0,0,-0.2962,-0.2931,-0.3016,-0.3012,-0.3012,-0.3058,-0.3058,-0.3058,-0.3026,-0.3025,-0.3024,-0.3023,-0.2969,-0.2968,-0.2967,-0.2985,0,0,-0.2964,-0.2963,0,0,0,0,0,0,0,0,-0.2961,-0.2965,-0.3011,-0.3012,-0.3013,-0.3041,-0.3008,-0.3031,-0.3027,-0.3014,-0.3024,-0.3022,-0.2989,-0.2986,-0.2989,-0.2982,-0.298,-0.2964,-0.2963,-0.2963,-0.2962,0,0,0,0,0,0,0,-0.2958,-0.2963,-0.3026,-0.3013,-0.3014,-0.3016,-0.3018,-0.3012,-0.3001,-0.3015,-0.3014,-0.303,-0.2988,-0.299,-0.2987,-0.2979,-0.2964,-0.2963,-0.2962,-0.2962,-0.3025,-0.3027,0,0,0,0,0,0,-0.2967,-0.2961,-0.3025,-0.3028,-0.2991,-0.3019,-0.3021,-0.3028,-0.3003,-0.3001,-0.3031,-0.3029,-0.2993,-0.2989,-0.2985,-0.3036,-0.2963,-0.2962,-0.2961,-0.3023,-0.3026,-0.3028,0,0,0,0,0,0,-0.2965,-0.2972,-0.3023,-0.3001,-0.3009,-0.3022,-0.303,-0.303,-0.3033,-0.3018,-0.3012,-0.3035,-0.2992,-0.2987,-0.298,-0.3032,-0.2961,-0.296,-0.302,-0.3024,-0.3027,-0.3116,0,0,0,0,0,0,-0.2962,-0.297,-0.2968,-0.3002,-0.301,-0.3072,-0.3032,-0.3032,-0.3047,-0.3044,-0.3019,-0.3013,-0.299,-0.2981,-0.2979,-0.3029,-0.2959,-0.3017,-0.3022,-0.3026,-0.3111,-0.3123,-0.3133,0,0,0,0,0,-0.2958,-0.2963,-0.2968,-0.2976,-0.301,-0.3075,-0.308,-0.308,-0.3049,-0.3071,-0.3036,-0.3013,-0.3008,-0.2981,-0.2978,-0.303,-0.3015,-0.302,-0.3025,-0.3106,-0.312,-0.3133,0,0,0,0,0,0,-0.2921,-0.2962,-0.2967,-0.2982,-0.3038,-0.3072,-0.3086,-0.3086,-0.3078,-0.3059,-0.3024,-0.3018,-0.3051,-0.3021,-0.2992,-0.3064,-0.3016,-0.3021,-0.3079,-0.3092,-0.3103,-0.3091,-0.2959,0,0,0,0,0,-0.2917,-0.2929,-0.2986,-0.3002,-0.303,-0.3058,-0.3076,-0.3088,-0.3093,-0.3088,-0.3075,-0.306,-0.3073,-0.3061,-0.3075,-0.3087,-0.3001,-0.3125,-0.3136,-0.3146,-0.3136,-0.3046,-0.3047,-0.3045,-0.3045,-0.3045,0,0,-0.2907,-0.2932,-0.2938,-0.2996,-0.3027,-0.3088,-0.3064,-0.3108,-0.3147,-0.3082,-0.311,-0.3107,-0.3091,-0.3126,-0.3137,-0.3097,-0.3101,-0.3152,-0.316,-0.3145,-0.3051,-0.3051,-0.305,-0.3049,-0.3048,-0.3048,0,0,-0.2921,-0.2922,-0.2955,-0.3008,-0.3074,-0.3101,-0.3119,-0.317,-0.3178,-0.3214,-0.3188,-0.3199,-0.3211,-0.3211,-0.3209,-0.3284,-0.318,-0.3304,-0.3325,-0.3239,-0.3237,-0.3234,-0.3108,-0.3093,-0.3287,-0.3287,-0.3287,0,-0.2915,-0.2949,-0.2978,-0.3042,-0.3071,-0.3112,-0.3163,-0.3203,-0.3242,-0.3225,-0.3237,-0.3233,-0.3256,-0.3251,-0.3312,-0.3311,-0.3214,-0.3273,-0.3249,-0.3244,-0.324,-0.3111,-0.3093,-0.3292,-0.3292,-0.3291,-0.3291,0,-0.2976,-0.3002,-0.303,-0.3112,-0.3156,-0.3204,-0.3272,-0.3299,-0.3307,-0.3321,-0.3327,-0.3342,-0.3319,-0.3366,-0.3376,-0.3368,-0.3294,-0.3286,-0.3204,-0.3244,-0.3107,-0.3087,-0.3299,-0.3298,-0.3296,-0.3295,0,0,-0.2953,-0.305,-0.3057,-0.3079,-0.3182,-0.3214,-0.3283,-0.332,-0.3294,-0.3363,-0.3307,-0.3416,-0.3387,-0.3386,-0.3389,-0.335,-0.3288,-0.3317,-0.331,-0.3172,-0.304,-0.3002,-0.2975,-0.3253,-0.3251,-0.3249,-0.2949,0,-0.2987,-0.3075,-0.3118,-0.3182,-0.3221,-0.3261,-0.3299,-0.3334,-0.3339,-0.3306,-0.3322,-0.3306,-0.3404,-0.3374,-0.3366,-0.3299,-0.3241,-0.3367,-0.3039,-0.3028,-0.2974,-0.2954,-0.2885,-0.2613,-0.2929,-0.2925,-0.2923,0,-0.3021,-0.3066,-0.3129,-0.3156,-0.3173,-0.3219,-0.3203,-0.3249,-0.3234,-0.3225,-0.3209,-0.32,-0.3194,-0.3256,-0.3144,-0.3204,-0.3148,-0.3095,-0.3081,-0.2998,-0.2954,-0.263,-0.2563,-0.2565,-0.289,-0.2893,-0.2895,0,-0.2953,-0.3049,-0.3072,-0.3103,-0.3173,-0.3172,-0.32,-0.3205,-0.3182,-0.3154,-0.3101,-0.3076,-0.3037,-0.2979,-0.2977,-0.3019,-0.28,-0.2822,-0.2714,-0.2707,-0.2561,-0.2547,-0.2441,-0.2718,-0.2718,-0.2719,-0.272,0,-0.2939,-0.2952,-0.3038,-0.3054,-0.3031,-0.3114,-0.3058,-0.308,-0.3056,-0.3011,-0.305,-0.299,-0.2972,-0.2879,-0.2867,-0.2726,-0.2705,-0.2694,-0.2629,-0.2593,-0.2586,-0.2513,-0.2555,-0.2708,-0.271,-0.2713,-0.2715,0,-0.2841,-0.2919,-0.2925,-0.2988,-0.2997,-0.2976,-0.2978,-0.2955,-0.2954,-0.2884,-0.2875,-0.2865,-0.2765,-0.2711,-0.2577,-0.2564,-0.2392,-0.2404,-0.2357,-0.2297,-0.2209,-0.226,-0.2017,-0.1961,-0.2175,-0.2173,-0.217,0,-0.2791,-0.2793,-0.2833,-0.2842,-0.2867,-0.2857,-0.2862,-0.2889,-0.2873,-0.2825,-0.2794,-0.2688,-0.2635,-0.2406,-0.2332,-0.218,-0.2243,-0.2042,-0.2158,-0.2174,-0.2181,-0.2202,-0.2176,-0.1968,-0.1964,-0.1961,-0.1959,0,-0.266,-0.2673,-0.269,-0.2707,-0.2725,-0.2713,-0.2734,-0.2696,-0.2738,-0.2681,-0.2635,-0.2579,-0.241,-0.2247,-0.2075,-0.2003,-0.2003,-0.1974,-0.1987,-0.201,-0.2022,-0.1947,-0.2182,-0.1932,-0.1935,-0.1937,-0.1938,-0.1939,-0.2529,-0.2506,-0.2542,-0.2544,-0.2579,-0.2587,-0.2517,-0.2553,-0.2488,-0.2365,-0.2434,-0.2301,-0.2198,-0.1953,-0.1875,-0.1735,-0.1788,-0.1699,-0.1744,-0.1753,-0.1762,-0.1943,-0.1655,-0.1656,-0.1657,-0.1657,-0.1658,0,-0.2352,-0.2374,-0.2387,-0.2394,-0.2393,-0.2448,-0.2437,-0.235,-0.2243,-0.2166,-0.2061,-0.1988,-0.1827,-0.1766,-0.1655,-0.1559,-0.1513,-0.1507,-0.1531,-0.1506,-0.1628,-0.1692,-0.1405,-0.1405,-0.1405,-0.1405,-0.1405,-0.1405,-0.2263,-0.2222,-0.225,-0.2199,-0.222,-0.214,-0.21,-0.1991,-0.1902,-0.1703,-0.1631,-0.1642,-0.1701,-0.1742,-0.1626,-0.1515,-0.1478,-0.1387,-0.1412,-0.1555,-0.1578,-0.16,-0.1671,-0.1384,-0.1384,-0.1231,-0.123,-0.123]},{"header":{"parameterUnit":"m.s-1","parameterCategory":2,"la1":30.2991,"la2":30.254,"lo1":-89.0895,"lo2":-89.0444,"dy":0.0017,"dx":0.0017,"nx":28,"ny":28,"refTime":"2023-10-10T09:00:00:Z","depth":"0","parameterNumber":3,"parameterNumberName":"V-component_of_CURRENTS"},"data":[0,0,0,0,0,0,0,0,0,0,0,0,0,0,0,0,0,0,0,0,0,0,0,0,0,0,0,0,0,0,0,0,0,0,0,0,0,0,0,0,0,0,0,0,0,0,0,0,0,0,0,0,0,0,0,0,0,0,-0.0476,-0.0476,0,-0.038,-0.0379,-0.0377,-0.0319,-0.0318,-0.0318,-0.0318,-0.0193,-0.019,-0.0187,0,0,0,0,0,0,0,0,0,0,0,0,0,-0.0562,-0.0561,-0.0477,-0.0475,-0.0474,-0.038,-0.0379,-0.0377,-0.0319,-0.0318,-0.0318,-0.0318,-0.0194,-0.019,-0.0186,0,0,0,0,0,0,0,0,0,0,0,0,0,-0.05,-0.0561,-0.0477,-0.0435,-0.0431,-0.038,-0.0379,-0.0377,-0.0319,-0.0318,-0.0318,-0.0318,-0.0195,-0.0191,-0.0186,-0.0159,0,0,-0.0171,-0.0169,0,0,0,0,0,0,0,0,-0.0503,-0.0496,-0.0442,-0.0438,-0.0433,-0.0363,-0.0363,-0.0303,-0.0319,-0.0359,-0.0318,-0.0318,-0.0249,-0.0239,-0.0219,-0.0153,-0.0148,-0.017,-0.0167,-0.0165,-0.0164,0,0,0,0,0,0,0,-0.0508,-0.05,-0.0436,-0.0441,-0.0436,-0.0406,-0.0397,-0.0351,-0.0304,-0.0355,-0.0352,-0.0344,-0.0245,-0.0224,-0.0216,-0.0146,-0.0171,-0.0166,-0.0163,-0.0161,-0.0035,-0.0035,0,0,0,0,0,0,-0.0526,-0.0504,-0.0439,-0.0433,-0.0471,-0.0405,-0.0394,-0.0384,-0.0305,-0.0293,-0.0344,-0.0342,-0.0232,-0.0221,-0.0211,-0.0158,-0.0165,-0.0161,-0.0158,-0.0035,-0.0035,-0.0034,0,0,0,0,0,0,-0.0529,-0.0521,-0.0443,-0.0469,-0.0457,-0.0404,-0.0392,-0.0382,-0.0363,-0.0297,-0.0285,-0.0336,-0.0232,-0.0218,-0.0162,-0.0154,-0.0159,-0.0154,-0.0036,-0.0035,-0.0035,-0.0063,0,0,0,0,0,0,-0.0531,-0.0523,-0.0522,-0.047,-0.0456,-0.042,-0.0392,-0.038,-0.0359,-0.0355,-0.0285,-0.0273,-0.023,-0.017,-0.0157,-0.0147,-0.015,-0.0037,-0.0036,-0.0035,-0.0063,-0.0064,-0.0065,0,0,0,0,0,-0.0535,-0.0539,-0.0522,-0.0514,-0.0456,-0.042,-0.041,-0.0371,-0.0359,-0.0352,-0.0297,-0.0276,-0.0156,-0.0165,-0.0151,-0.0139,-0.0037,-0.0036,-0.0035,-0.0063,-0.0064,-0.0065,0,0,0,0,0,0,-0.0574,-0.0532,-0.0512,-0.0502,-0.0467,-0.0411,-0.0406,-0.0377,-0.0329,-0.0326,-0.0263,-0.0247,-0.0195,-0.0165,-0.0177,-0.0101,-0.0096,-0.0092,-0.0122,-0.0122,-0.0123,-0.0145,-0.0146,0,0,0,0,0,-0.0583,-0.0576,-0.0527,-0.052,-0.0509,-0.0459,-0.044,-0.0412,-0.0364,-0.0343,-0.0292,-0.0237,-0.018,-0.0151,-0.0101,-0.0058,-0.0025,-0.0044,-0.0045,-0.0046,-0.0054,0.0031,0.0038,-0.0031,-0.0031,-0.0031,0,0,-0.0596,-0.0573,-0.0568,-0.0528,-0.0501,-0.0487,-0.0447,-0.0426,-0.0405,-0.0337,-0.0296,-0.0237,-0.0169,-0.0116,-0.0092,-0.0089,-0.0014,-0.0044,-0.0045,-0.0053,0.0033,0.004,0.0046,-0.0031,-0.0031,-0.0031,0,0,-0.0631,-0.0601,-0.0612,-0.0587,-0.0552,-0.0514,-0.0513,-0.0458,-0.0427,-0.038,-0.0319,-0.0253,-0.0183,-0.0119,-0.008,-0.0057,-0.002,-0.0048,-0.0067,0.0017,0.0023,0.0029,0.0056,0.0064,-0.0049,-0.0049,-0.0049,0,-0.0651,-0.0649,-0.0609,-0.0613,-0.0594,-0.0533,-0.0533,-0.0492,-0.0422,-0.0386,-0.0378,-0.0233,-0.0183,-0.0088,-0.0086,-0.0058,-0.0025,-0.0068,0.0016,0.0023,0.003,0.0056,0.0066,-0.005,-0.005,-0.005,-0.005,0,-0.0696,-0.0687,-0.0694,-0.0673,-0.0646,-0.0635,-0.0575,-0.0536,-0.0492,-0.044,-0.0346,-0.0258,-0.0168,-0.0143,-0.0112,-0.0031,-0.003,0.0006,0.0017,0.0035,0.0061,0.0072,-0.0052,-0.0052,-0.0051,-0.0051,0,0,-0.0748,-0.073,-0.0729,-0.0719,-0.0673,-0.0649,-0.0614,-0.0547,-0.0498,-0.0432,-0.0355,-0.0264,-0.0204,-0.0157,-0.0086,-0.0026,0.0038,-0.0003,0.0002,0.0017,0.0184,0.013,0.0137,0.0096,0.0098,0.01,0.0173,0,-0.0791,-0.0816,-0.0782,-0.0774,-0.0776,-0.0698,-0.0659,-0.0588,-0.0511,-0.042,-0.032,-0.0226,-0.021,-0.0147,-0.0085,0.0026,0.0069,0.0012,0.0167,0.017,0.0118,0.015,0.0133,0.0193,0.0184,0.0186,0.0187,0,-0.0844,-0.0847,-0.0868,-0.0808,-0.0798,-0.0775,-0.0673,-0.0627,-0.0494,-0.0428,-0.0322,-0.0231,-0.0119,-0.0104,0.0058,0.0022,0.0083,0.0149,0.0155,0.0122,0.0139,0.0179,0.0214,0.0318,0.0204,0.0203,0.0202,0,-0.0906,-0.089,-0.0905,-0.0893,-0.0831,-0.0801,-0.075,-0.0635,-0.0567,-0.0423,-0.0346,-0.0207,-0.011,-0.0008,0.0099,0.0095,0.0263,0.0288,0.0289,0.0284,0.0307,0.0301,0.0459,0.0387,0.0387,0.0387,0.0387,0,-0.0961,-0.096,-0.0933,-0.094,-0.0911,-0.0852,-0.0784,-0.0703,-0.0571,-0.0482,-0.0354,-0.0249,-0.0078,0.0039,0.0114,0.0222,0.0278,0.0281,0.0311,0.0291,0.0283,0.0403,0.0461,0.039,0.0389,0.0388,0.0388,0,-0.1021,-0.1015,-0.1018,-0.0971,-0.0948,-0.0928,-0.0814,-0.0755,-0.063,-0.0502,-0.0454,-0.0258,-0.0118,0.002,0.02,0.0245,0.0406,0.0369,0.0296,0.0315,0.0391,0.0446,0.0622,0.0667,0.0389,0.0388,0.0387,0,-0.1051,-0.1073,-0.1049,-0.1049,-0.1027,-0.098,-0.0937,-0.0804,-0.0725,-0.0516,-0.0452,-0.0278,-0.0167,0.0051,0.0174,0.0294,0.04,0.0347,0.0335,0.0389,0.0476,0.0525,0.0554,0.0352,0.0351,0.0351,0.035,0,-0.1098,-0.11,-0.1105,-0.1114,-0.1089,-0.1036,-0.0958,-0.09,-0.0736,-0.0625,-0.0473,-0.0376,-0.0165,-0.0014,0.0143,0.0212,0.0418,0.0332,0.0453,0.0502,0.0509,0.0567,0.027,0.0344,0.0344,0.0345,0.0345,0.0345,-0.1121,-0.1145,-0.1165,-0.1168,-0.1142,-0.109,-0.1036,-0.0942,-0.0831,-0.0654,-0.0556,-0.0413,-0.0163,0.0055,0.0154,0.0357,0.0372,0.0419,0.0491,0.0542,0.0565,0.0204,0.0269,0.0269,0.0269,0.0269,0.0269,0,-0.115,-0.1187,-0.1207,-0.1206,-0.1191,-0.1147,-0.1042,-0.0974,-0.0867,-0.0747,-0.0628,-0.0366,-0.0131,0.0122,0.042,0.0533,0.058,0.0601,0.0708,0.0737,0.0482,0.0458,0.0489,0.0489,0.0489,0.0489,0.0489,0.0489,-0.1166,-0.1218,-0.1244,-0.1251,-0.1235,-0.1159,-0.1097,-0.0995,-0.0892,-0.0717,-0.0568,-0.0474,-0.0069,0.0501,0.081,0.081,0.0955,0.0915,0.1007,0.0865,0.0855,0.0845,0.0838,0.0949,0.0949,0.1237,0.124,0.1242]}],[{"header":{"parameterUnit":"m.s-1","parameterCategory":2,"la1":30.2991,"la2":30.254,"lo1":-89.0895,"lo2":-89.0444,"dy":0.0017,"dx":0.0017,"nx":28,"ny":28,"refTime":"2023-10-10T09:00:00:Z","depth":"2","parameterNumber":2,"parameterNumberName":"U-component_of_CURRENTS"},"data":[0,0,0,0,0,0,0,0,0,0,0,0,0,0,0,0,0,0,0,0,0,0,0,0,0,0,0,0,0,0,0,0,0,0,0,0,0,0,0,0,0,0,0,0,0,0,0,0,0,0,0,0,0,0,0,0,0,0,-0.2315,-0.2316,0,-0.2422,-0.2424,-0.2426,-0.2521,-0.2522,-0.2523,-0.2523,-0.2379,-0.2374,-0.237,0,0,0,0,0,0,0,0,0,0,0,0,0,-0.2336,-0.2334,-0.2315,-0.2316,-0.2317,-0.2422,-0.2424,-0.2426,-0.2521,-0.2522,-0.2523,-0.2523,-0.238,-0.2375,-0.237,0,0,0,0,0,0,0,0,0,0,0,0,0,-0.2377,-0.2334,-0.2315,-0.2373,-0.2379,-0.2422,-0.2424,-0.2427,-0.2521,-0.2522,-0.2523,-0.2524,-0.2382,-0.2375,-0.2369,-0.2308,0,0,-0.2348,-0.2345,0,0,0,0,0,0,0,0,-0.2375,-0.2377,-0.2364,-0.2369,-0.2376,-0.2455,-0.2379,-0.2373,-0.2521,-0.2472,-0.2523,-0.2524,-0.2377,-0.2371,-0.2399,-0.2301,-0.2295,-0.2348,-0.2344,-0.2341,-0.2339,0,0,0,0,0,0,0,-0.2372,-0.2374,-0.2363,-0.2364,-0.2372,-0.2443,-0.2449,-0.238,-0.2417,-0.2477,-0.2483,-0.2486,-0.2379,-0.2406,-0.2396,-0.2293,-0.2348,-0.2342,-0.2338,-0.2335,-0.2223,-0.2224,0,0,0,0,0,0,-0.2339,-0.237,-0.2359,-0.2365,-0.2372,-0.2441,-0.2448,-0.2433,-0.2423,-0.2424,-0.2485,-0.249,-0.2417,-0.2404,-0.239,-0.2466,-0.2341,-0.2335,-0.2331,-0.2222,-0.2224,-0.2225,0,0,0,0,0,0,-0.2339,-0.2336,-0.2355,-0.2368,-0.2375,-0.2438,-0.2421,-0.2434,-0.2468,-0.2432,-0.2428,-0.2505,-0.2417,-0.24,-0.2387,-0.2454,-0.2332,-0.2326,-0.2221,-0.2223,-0.2224,-0.2518,0,0,0,0,0,0,-0.2339,-0.2335,-0.2366,-0.2364,-0.2372,-0.2426,-0.242,-0.2435,-0.2466,-0.2474,-0.2446,-0.2435,-0.2417,-0.2398,-0.238,-0.2443,-0.232,-0.222,-0.2222,-0.2224,-0.2507,-0.2529,-0.2548,0,0,0,0,0,-0.2339,-0.2385,-0.2366,-0.2368,-0.2393,-0.2427,-0.2441,-0.2493,-0.2465,-0.2518,-0.2499,-0.2437,-0.2396,-0.2394,-0.2373,-0.2435,-0.2219,-0.2221,-0.2224,-0.2497,-0.2525,-0.2548,0,0,0,0,0,0,-0.2406,-0.2398,-0.2378,-0.2415,-0.243,-0.2443,-0.2486,-0.2486,-0.2514,-0.2515,-0.2455,-0.2445,-0.246,-0.2379,-0.2377,-0.2399,-0.2292,-0.2291,-0.2507,-0.2532,-0.2552,-0.2552,-0.2315,0,0,0,0,0,-0.2424,-0.2464,-0.2439,-0.2474,-0.2458,-0.2456,-0.2483,-0.2514,-0.2513,-0.253,-0.2512,-0.2471,-0.2449,-0.2439,-0.2407,-0.2406,-0.229,-0.2423,-0.2444,-0.2463,-0.2443,-0.236,-0.2373,-0.2233,-0.2233,-0.2232,0,0,-0.2443,-0.2459,-0.2472,-0.2495,-0.2483,-0.2514,-0.2477,-0.2522,-0.2578,-0.2496,-0.2565,-0.2538,-0.2459,-0.2508,-0.2502,-0.2454,-0.2441,-0.2466,-0.2484,-0.2452,-0.2364,-0.2378,-0.239,-0.2234,-0.2234,-0.2234,0,0,-0.2514,-0.2503,-0.2549,-0.2559,-0.2578,-0.2591,-0.2591,-0.2609,-0.2645,-0.267,-0.2659,-0.2682,-0.2602,-0.2646,-0.262,-0.2706,-0.255,-0.2673,-0.2794,-0.2718,-0.2729,-0.2738,-0.2621,-0.2616,-0.2692,-0.2693,-0.2693,0,-0.2552,-0.2583,-0.2574,-0.2611,-0.2625,-0.2608,-0.2643,-0.2684,-0.2728,-0.2737,-0.271,-0.2675,-0.267,-0.2716,-0.2809,-0.2762,-0.2656,-0.2729,-0.275,-0.2756,-0.276,-0.2637,-0.2629,-0.2707,-0.2706,-0.2704,-0.2703,0,-0.2626,-0.2662,-0.2672,-0.2711,-0.2746,-0.2775,-0.2789,-0.2845,-0.2836,-0.2855,-0.2876,-0.2884,-0.2851,-0.2891,-0.2889,-0.2945,-0.284,-0.2792,-0.2705,-0.2793,-0.2656,-0.2642,-0.2728,-0.2723,-0.2718,-0.2715,0,0,-0.265,-0.2719,-0.2721,-0.2736,-0.2794,-0.2812,-0.2896,-0.2941,-0.2932,-0.2998,-0.2968,-0.3073,-0.3052,-0.3024,-0.3044,-0.3044,-0.3061,-0.2963,-0.2952,-0.2876,-0.2843,-0.277,-0.2745,-0.3015,-0.3014,-0.3013,-0.2743,0,-0.2694,-0.279,-0.2826,-0.2892,-0.2901,-0.2923,-0.2974,-0.3031,-0.3024,-0.3008,-0.3034,-0.301,-0.3103,-0.3085,-0.3124,-0.3037,-0.3032,-0.3134,-0.2738,-0.2725,-0.2676,-0.2731,-0.2572,-0.2318,-0.2728,-0.2726,-0.2724,0,-0.2726,-0.279,-0.2869,-0.2923,-0.2917,-0.2976,-0.2992,-0.3045,-0.3044,-0.3018,-0.3032,-0.2991,-0.3058,-0.3064,-0.3003,-0.3051,-0.2988,-0.2925,-0.2911,-0.2719,-0.2626,-0.2287,-0.2275,-0.2698,-0.27,-0.2702,-0.2704,0,-0.2706,-0.2803,-0.2874,-0.289,-0.2959,-0.2992,-0.3031,-0.3046,-0.3026,-0.3015,-0.2941,-0.2973,-0.2923,-0.2882,-0.2854,-0.2891,-0.2693,-0.2694,-0.2561,-0.2551,-0.2272,-0.224,-0.2623,-0.2623,-0.2624,-0.2625,-0.2626,0,-0.2715,-0.2747,-0.2862,-0.2881,-0.2898,-0.2971,-0.2951,-0.2981,-0.2954,-0.2866,-0.2947,-0.2819,-0.2873,-0.278,-0.2767,-0.2616,-0.2617,-0.2566,-0.2485,-0.2369,-0.2351,-0.2558,-0.2554,-0.2615,-0.2617,-0.2619,-0.2621,0,-0.2633,-0.2731,-0.2772,-0.2866,-0.2879,-0.2881,-0.2881,-0.2861,-0.2863,-0.2734,-0.2722,-0.2675,-0.2532,-0.2564,-0.2432,-0.2461,-0.2341,-0.2295,-0.2156,-0.2068,-0.2257,-0.2271,-0.2062,-0.2058,-0.2054,-0.205,-0.2048,0,-0.2594,-0.2619,-0.2712,-0.2725,-0.2759,-0.2768,-0.2764,-0.2796,-0.2738,-0.2584,-0.2492,-0.2364,-0.2195,-0.2028,-0.2041,-0.1964,-0.2116,-0.1822,-0.1913,-0.2262,-0.2203,-0.2224,-0.2243,-0.1636,-0.163,-0.1625,-0.1621,0,-0.2464,-0.2509,-0.2551,-0.2584,-0.2607,-0.2577,-0.2565,-0.2447,-0.242,-0.2316,-0.2045,-0.1891,-0.1772,-0.1619,-0.1651,-0.159,-0.1837,-0.1718,-0.2053,-0.1846,-0.1849,-0.1797,-0.183,-0.1578,-0.1582,-0.1585,-0.1588,-0.1589,-0.2331,-0.232,-0.239,-0.2392,-0.242,-0.2309,-0.2176,-0.2133,-0.1933,-0.1726,-0.1672,-0.1507,-0.1487,-0.1412,-0.1322,-0.1338,-0.1457,-0.147,-0.1488,-0.151,-0.1553,-0.1555,-0.1231,-0.1233,-0.1235,-0.1236,-0.1238,0,-0.2127,-0.2164,-0.2186,-0.2152,-0.2084,-0.2186,-0.1995,-0.1816,-0.1499,-0.1501,-0.1348,-0.117,-0.1083,-0.1106,-0.106,-0.1053,-0.1066,-0.1014,-0.106,-0.11,-0.1137,-0.1167,-0.0738,-0.0737,-0.0736,-0.0735,0,0,-0.2024,-0.1982,-0.2,-0.1815,-0.1806,-0.1592,-0.1429,-0.124,-0.1155,-0.0966,-0.1002,-0.1156,-0.112,-0.0999,-0.091,-0.0837,-0.0969,-0.0777,-0.117,-0.1266,-0.1302,-0.1375,-0.1463,0,0,0,0,0]},{"header":{"parameterUnit":"m.s-1","parameterCategory":2,"la1":30.2991,"la2":30.254,"lo1":-89.0895,"lo2":-89.0444,"dy":0.0017,"dx":0.0017,"nx":28,"ny":28,"refTime":"2023-10-10T09:00:00:Z","depth":"2","parameterNumber":3,"parameterNumberName":"V-component_of_CURRENTS"},"data":[0,0,0,0,0,0,0,0,0,0,0,0,0,0,0,0,0,0,0,0,0,0,0,0,0,0,0,0,0,0,0,0,0,0,0,0,0,0,0,0,0,0,0,0,0,0,0,0,0,0,0,0,0,0,0,0,0,0,-0.0199,-0.0198,0,-0.0072,-0.007,-0.0069,-0.0048,-0.0049,-0.0049,-0.005,0.0052,0.0056,0.0059,0,0,0,0,0,0,0,0,0,0,0,0,0,-0.0318,-0.0317,-0.0199,-0.0197,-0.0196,-0.0072,-0.007,-0.0069,-0.0048,-0.0049,-0.005,-0.0051,0.0051,0.0055,0.0059,0,0,0,0,0,0,0,0,0,0,0,0,0,-0.0238,-0.0316,-0.02,-0.0168,-0.0164,-0.0072,-0.007,-0.0069,-0.0047,-0.0049,-0.005,-0.0051,0.005,0.0055,0.006,0.0119,0,0,0.0076,0.0079,0,0,0,0,0,0,0,0,-0.0243,-0.0234,-0.0175,-0.017,-0.0165,-0.0075,-0.0074,-0.0006,-0.0047,-0.0094,-0.005,-0.0052,0.001,0.0018,0.0042,0.0124,0.0128,0.0077,0.008,0.0082,0.0084,0,0,0,0,0,0,0,-0.0249,-0.0239,-0.0151,-0.0173,-0.0167,-0.0124,-0.0116,-0.0061,-0.0039,-0.009,-0.0088,-0.0069,0.0012,0.0037,0.0045,0.013,0.0077,0.0081,0.0085,0.0087,0.0277,0.0279,0,0,0,0,0,0,-0.0264,-0.0245,-0.0155,-0.0147,-0.0206,-0.0121,-0.0112,-0.0105,-0.0038,-0.0029,-0.0068,-0.0069,0.0029,0.0039,0.0049,0.008,0.0082,0.0087,0.009,0.0275,0.0277,0.0279,0,0,0,0,0,0,-0.0267,-0.0257,-0.016,-0.019,-0.0175,-0.0118,-0.011,-0.0101,-0.0083,-0.0021,-0.0013,-0.006,0.0028,0.0041,0.0084,0.0085,0.009,0.0094,0.0273,0.0276,0.0278,0.0169,0,0,0,0,0,0,-0.0271,-0.026,-0.0273,-0.0192,-0.0174,-0.0134,-0.0108,-0.0098,-0.0068,-0.0067,-0.001,-0.0002,0.0028,0.0076,0.0089,0.0092,0.0099,0.027,0.0274,0.0277,0.017,0.0168,0.0166,0,0,0,0,0,-0.0276,-0.0289,-0.0275,-0.0265,-0.0191,-0.0135,-0.0123,-0.0087,-0.0066,-0.0072,-0.0024,-0.0004,0.0109,0.0081,0.0097,0.0101,0.0269,0.0273,0.0277,0.0172,0.0168,0.0166,0,0,0,0,0,0,-0.0341,-0.0285,-0.0269,-0.0263,-0.0216,-0.0131,-0.0125,-0.0087,-0.0049,-0.0054,0.0009,0.0021,0.0064,0.0112,0.0081,0.0175,0.0198,0.0205,0.0112,0.011,0.0108,0.0076,0.0103,0,0,0,0,0,-0.0361,-0.0366,-0.0293,-0.0291,-0.0266,-0.0193,-0.0167,-0.0144,-0.0089,-0.0074,-0.0024,0.0039,0.0101,0.0122,0.0179,0.0224,0.0264,0.0247,0.0244,0.0241,0.0233,0.0314,0.0316,0.0293,0.0293,0.0293,0,0,-0.0382,-0.0354,-0.0355,-0.0307,-0.0261,-0.0232,-0.0182,-0.0155,-0.0133,-0.0067,-0.0029,0.0029,0.0114,0.0157,0.0183,0.0189,0.0266,0.0247,0.0243,0.0236,0.0318,0.032,0.0321,0.0296,0.0295,0.0295,0,0,-0.0425,-0.0401,-0.0417,-0.0378,-0.0327,-0.0277,-0.0271,-0.0194,-0.017,-0.0113,-0.0061,-0.0005,0.0096,0.014,0.0185,0.0215,0.0254,0.0242,0.0194,0.0272,0.0273,0.0275,0.0296,0.03,0.0236,0.0236,0.0235,0,-0.0458,-0.046,-0.0411,-0.0403,-0.0376,-0.0298,-0.0293,-0.0243,-0.0168,-0.0144,-0.0117,0.0041,0.0094,0.0161,0.0159,0.0204,0.0236,0.0182,0.0263,0.0266,0.0269,0.0291,0.0297,0.0231,0.0231,0.0232,0.0232,0,-0.0498,-0.0498,-0.0494,-0.0463,-0.0431,-0.0414,-0.0335,-0.0307,-0.0248,-0.0191,-0.0112,-0.0023,0.007,0.01,0.0133,0.0186,0.0194,0.0245,0.0251,0.0264,0.0287,0.0295,0.0224,0.0226,0.0227,0.0228,0,0,-0.0566,-0.0536,-0.0534,-0.053,-0.0465,-0.0437,-0.0402,-0.0343,-0.03,-0.0225,-0.0158,-0.0065,-0.0013,0.0042,0.0099,0.0151,0.0184,0.0188,0.0195,0.0173,0.0311,0.0266,0.0271,0.0243,0.0245,0.0246,0.0303,0,-0.0612,-0.0635,-0.0596,-0.059,-0.0585,-0.0507,-0.0466,-0.0408,-0.0325,-0.0241,-0.0147,-0.0054,-0.0031,0.0019,0.0069,0.018,0.0207,0.0161,0.0334,0.0338,0.0269,0.0281,0.027,0.0316,0.0311,0.0313,0.0314,0,-0.0661,-0.0669,-0.0698,-0.0653,-0.0638,-0.0617,-0.0538,-0.0492,-0.0368,-0.0298,-0.0206,-0.0107,-0.0021,0.002,0.0162,0.013,0.0194,0.0266,0.0272,0.0274,0.031,0.0316,0.0332,0.0328,0.0327,0.0326,0.0325,0,-0.0745,-0.0728,-0.0764,-0.0749,-0.0688,-0.0678,-0.063,-0.0524,-0.046,-0.033,-0.0248,-0.0133,-0.0033,0.0064,0.0189,0.0186,0.0348,0.0382,0.039,0.0386,0.0433,0.043,0.0468,0.0468,0.0468,0.0468,0.0468,0,-0.0807,-0.0819,-0.0806,-0.0818,-0.0812,-0.0748,-0.0704,-0.0629,-0.0501,-0.0408,-0.0287,-0.0179,-0.001,0.0109,0.019,0.0303,0.0353,0.0371,0.0406,0.0392,0.0386,0.0456,0.0453,0.047,0.0469,0.0469,0.0469,0,-0.088,-0.0881,-0.0905,-0.0877,-0.0857,-0.0852,-0.0742,-0.0691,-0.057,-0.0438,-0.0391,-0.0192,-0.0033,0.0104,0.0287,0.0317,0.0427,0.0447,0.038,0.0405,0.0402,0.0394,0.0465,0.0464,0.0463,0.0463,0.0462,0,-0.0916,-0.0952,-0.0958,-0.0962,-0.0947,-0.0913,-0.0873,-0.0745,-0.0664,-0.0442,-0.0373,-0.0183,-0.0069,0.0145,0.028,0.0396,0.0433,0.0427,0.0422,0.0378,0.0406,0.0399,0.0393,0.0437,0.0436,0.0435,0.0435,0,-0.0972,-0.0992,-0.1013,-0.1034,-0.1017,-0.0965,-0.0888,-0.0822,-0.0649,-0.0555,-0.0387,-0.0294,-0.0058,0.0095,0.0246,0.0315,0.0405,0.0415,0.0445,0.0421,0.0352,0.0379,0.0374,0.043,0.043,0.0431,0.0431,0.0431,-0.1004,-0.1037,-0.1078,-0.1086,-0.1064,-0.0994,-0.0926,-0.0834,-0.0725,-0.0533,-0.0447,-0.0301,-0.0118,0.0098,0.0231,0.0373,0.0367,0.0398,0.0401,0.0404,0.0372,0.0305,0.0364,0.0365,0.0365,0.0365,0.0365,0,-0.1028,-0.1074,-0.1106,-0.11,-0.1072,-0.1044,-0.0911,-0.0821,-0.0704,-0.0601,-0.049,-0.0303,-0.0138,0.0079,0.0277,0.0353,0.0371,0.0389,0.0413,0.0416,0.0419,0.039,0.0387,0.0387,0.0388,0.0388,0,0,-0.1042,-0.1099,-0.1125,-0.1101,-0.1081,-0.0973,-0.0887,-0.0774,-0.0666,-0.058,-0.0493,-0.0377,-0.0148,0.0008,0.0162,0.0284,0.0314,0.0289,0.0256,0.0267,0.0269,0.0406,0.036,0,0,0,0,0]}],[{"header":{"parameterUnit":"m.s-1","parameterCategory":2,"la1":30.2991,"la2":30.254,"lo1":-89.0895,"lo2":-89.0444,"dy":0.0017,"dx":0.0017,"nx":28,"ny":28,"refTime":"2023-10-10T09:00:00:Z","depth":"4","parameterNumber":2,"parameterNumberName":"U-component_of_CURRENTS"},"data":[0,0,0,0,0,0,0,0,0,0,0,0,0,0,0,0,0,0,0,0,0,0,0,0,0,0,0,0,0,0,0,0,0,0,0,0,0,0,0,0,0,0,0,0,0,0,0,0,0,0,0,0,0,0,0,0,0,0,-0.0496,-0.0497,0,-0.0538,-0.0538,-0.0539,-0.0559,-0.0559,-0.0559,-0.0559,-0.0608,-0.0609,-0.061,0,0,0,0,0,0,0,0,0,0,0,0,0,-0.0461,-0.0461,-0.0496,-0.0497,-0.0497,-0.0537,-0.0538,-0.0539,-0.0559,-0.0559,-0.0559,-0.0559,-0.0607,-0.0609,-0.061,0,0,0,0,0,0,0,0,0,0,0,0,0,-0.0487,-0.0461,-0.0496,-0.0512,-0.0514,-0.0537,-0.0538,-0.0539,-0.0559,-0.0559,-0.0559,-0.0559,-0.0607,-0.0608,-0.061,-0.0624,0,0,-0.0617,-0.0617,0,0,0,0,0,0,0,0,-0.0485,-0.0488,-0.0509,-0.0511,-0.0513,-0.0543,-0.0544,-0.0567,-0.0559,-0.0542,-0.0559,-0.0559,-0.0586,-0.059,-0.0598,-0.0626,-0.0628,-0.0617,-0.0618,-0.0619,-0.0619,0,0,0,0,0,0,0,-0.0483,-0.0487,-0.0513,-0.051,-0.0512,-0.0526,-0.0529,-0.0548,-0.0564,-0.0543,-0.0545,-0.0549,-0.0588,-0.0596,-0.0599,-0.0629,-0.0617,-0.0618,-0.062,-0.062,-0.0697,-0.0698,0,0,0,0,0,0,-0.0477,-0.0485,-0.0512,-0.0514,-0.0498,-0.0526,-0.053,-0.0533,-0.0564,-0.0568,-0.0549,-0.055,-0.0593,-0.0597,-0.0601,-0.0679,-0.0619,-0.0621,-0.0622,-0.0697,-0.0698,-0.0699,0,0,0,0,0,0,-0.0476,-0.0479,-0.051,-0.05,-0.0505,-0.0527,-0.053,-0.0534,-0.0548,-0.0568,-0.0573,-0.056,-0.0593,-0.0598,-0.0624,-0.0679,-0.0622,-0.0623,-0.0696,-0.0697,-0.0698,-0.0797,0,0,0,0,0,0,-0.0474,-0.0478,-0.0483,-0.05,-0.0505,-0.0528,-0.0531,-0.0535,-0.0551,-0.0552,-0.0579,-0.0583,-0.0593,-0.0621,-0.0626,-0.0681,-0.0625,-0.0694,-0.0696,-0.0698,-0.0792,-0.0801,-0.0809,0,0,0,0,0,-0.0473,-0.0476,-0.0483,-0.0487,-0.051,-0.0528,-0.0533,-0.0548,-0.0551,-0.056,-0.0578,-0.0582,-0.0635,-0.0623,-0.0629,-0.0686,-0.0694,-0.0696,-0.0698,-0.0789,-0.0799,-0.0809,0,0,0,0,0,0,-0.0466,-0.0479,-0.0487,-0.0495,-0.0513,-0.0531,-0.054,-0.0551,-0.0572,-0.0574,-0.0591,-0.0597,-0.0645,-0.0637,-0.0623,-0.0707,-0.0666,-0.0669,-0.0734,-0.0744,-0.0752,-0.0765,-0.0627,0,0,0,0,0,-0.0467,-0.0473,-0.0489,-0.0499,-0.0504,-0.0524,-0.0534,-0.0545,-0.0563,-0.0573,-0.0595,-0.0617,-0.0656,-0.0675,-0.0695,-0.0737,-0.0719,-0.0774,-0.0782,-0.079,-0.0801,-0.0839,-0.0853,-0.0705,-0.0705,-0.0705,0,0,-0.0469,-0.0476,-0.0481,-0.0498,-0.051,-0.0523,-0.053,-0.0545,-0.0564,-0.0575,-0.0609,-0.0646,-0.067,-0.0726,-0.0747,-0.0729,-0.0811,-0.0792,-0.0799,-0.0806,-0.0843,-0.0858,-0.0871,-0.0706,-0.0706,-0.0706,0,0,-0.0469,-0.0479,-0.0481,-0.0495,-0.0512,-0.0526,-0.0531,-0.0556,-0.0573,-0.0607,-0.0636,-0.0695,-0.0731,-0.078,-0.0804,-0.0861,-0.0852,-0.0877,-0.094,-0.0978,-0.0991,-0.1003,-0.0954,-0.0961,-0.0885,-0.0885,-0.0885,0,-0.0472,-0.0475,-0.0487,-0.0493,-0.0504,-0.0526,-0.0534,-0.0559,-0.0594,-0.0614,-0.062,-0.0723,-0.0757,-0.0845,-0.0895,-0.0885,-0.0881,-0.0909,-0.0992,-0.1003,-0.1013,-0.0961,-0.0968,-0.089,-0.0889,-0.0889,-0.0888,0,-0.0469,-0.0478,-0.0479,-0.0494,-0.0511,-0.052,-0.055,-0.0576,-0.0602,-0.0634,-0.0715,-0.0778,-0.0854,-0.0884,-0.0925,-0.1033,-0.0995,-0.0999,-0.0974,-0.1035,-0.0974,-0.0979,-0.0897,-0.0895,-0.0894,-0.0892,0,0,-0.0455,-0.0473,-0.0474,-0.0477,-0.0509,-0.0517,-0.0554,-0.0591,-0.0614,-0.0683,-0.0729,-0.0861,-0.0929,-0.0964,-0.1033,-0.1087,-0.1168,-0.1105,-0.1105,-0.1067,-0.1207,-0.1123,-0.1119,-0.1212,-0.1214,-0.1216,-0.112,0,-0.0447,-0.0447,-0.0467,-0.0479,-0.0478,-0.0516,-0.0545,-0.0588,-0.0633,-0.0683,-0.0779,-0.0862,-0.095,-0.1025,-0.1105,-0.1152,-0.1193,-0.119,-0.1144,-0.114,-0.1071,-0.1128,-0.1224,-0.1123,-0.1124,-0.1124,-0.1125,0,-0.0432,-0.0432,-0.0431,-0.0457,-0.0461,-0.0478,-0.052,-0.056,-0.064,-0.0683,-0.0802,-0.0883,-0.1026,-0.1072,-0.1193,-0.1198,-0.1235,-0.1244,-0.124,-0.1138,-0.1069,-0.1058,-0.1133,-0.1132,-0.1132,-0.1131,-0.1131,0,-0.039,-0.0408,-0.0401,-0.0408,-0.0442,-0.0455,-0.049,-0.0557,-0.0585,-0.0711,-0.0742,-0.0909,-0.098,-0.1087,-0.1179,-0.121,-0.1235,-0.1253,-0.1183,-0.1172,-0.1231,-0.122,-0.1324,-0.1324,-0.1325,-0.1325,-0.1325,0,-0.0362,-0.036,-0.0377,-0.0371,-0.0372,-0.0422,-0.0443,-0.0503,-0.0575,-0.0618,-0.0771,-0.0831,-0.1004,-0.1057,-0.1147,-0.1167,-0.1214,-0.1199,-0.1167,-0.1263,-0.1258,-0.123,-0.122,-0.1321,-0.1322,-0.1323,-0.1323,0,-0.0316,-0.0328,-0.0317,-0.0339,-0.0347,-0.0353,-0.0402,-0.0426,-0.0506,-0.0566,-0.0622,-0.0762,-0.0857,-0.0948,-0.1056,-0.1083,-0.1124,-0.1112,-0.1143,-0.1112,-0.1031,-0.1027,-0.1025,-0.1022,-0.1019,-0.1017,-0.1015,0,-0.0295,-0.0277,-0.0277,-0.0269,-0.0278,-0.0294,-0.0312,-0.0392,-0.0432,-0.0528,-0.0559,-0.0655,-0.076,-0.079,-0.0918,-0.0992,-0.1024,-0.0996,-0.1109,-0.1044,-0.1013,-0.1013,-0.1013,-0.101,-0.101,-0.1009,-0.1008,0,-0.0246,-0.0236,-0.022,-0.0207,-0.0211,-0.0222,-0.0266,-0.0279,-0.0388,-0.0434,-0.0515,-0.0595,-0.0645,-0.076,-0.0791,-0.0872,-0.1002,-0.097,-0.0977,-0.1083,-0.1026,-0.0998,-0.1001,-0.0999,-0.1,-0.1001,-0.1002,0,-0.0206,-0.0174,-0.0152,-0.0136,-0.0146,-0.0171,-0.0197,-0.0254,-0.0298,-0.0421,-0.0437,-0.0546,-0.0624,-0.0691,-0.0744,-0.079,-0.083,-0.0847,-0.0862,-0.0873,-0.0886,-0.0795,-0.0678,0,0,0,0,0,-0.0168,-0.0122,-0.0095,-0.0083,-0.0099,-0.0111,-0.0177,-0.0217,-0.0303,-0.0348,-0.0398,-0.0473,-0.0565,-0.0621,-0.0653,-0.0701,-0.083,-0.0735,-0.0854,-0.0947,-0.0958,-0.0996,0,0,0,0,0,0,-0.0141,-0.0101,-0.007,-0.0047,-0.0038,-0.0067,-0.0111,-0.0174,-0.0218,-0.0305,-0.0364,-0.0425,-0.0527,-0.0527,-0.0628,-0.0648,-0.0716,-0.0797,-0.0796,-0.0941,-0.0951,-0.0959,-0.1002,0,0,0,0,0]},{"header":{"parameterUnit":"m.s-1","parameterCategory":2,"la1":30.2991,"la2":30.254,"lo1":-89.0895,"lo2":-89.0444,"dy":0.0017,"dx":0.0017,"nx":28,"ny":28,"refTime":"2023-10-10T09:00:00:Z","depth":"4","parameterNumber":3,"parameterNumberName":"V-component_of_CURRENTS"},"data":[0,0,0,0,0,0,0,0,0,0,0,0,0,0,0,0,0,0,0,0,0,0,0,0,0,0,0,0,0,0,0,0,0,0,0,0,0,0,0,0,0,0,0,0,0,0,0,0,0,0,0,0,0,0,0,0,0,0,-0.0214,-0.0214,0,-0.0229,-0.0229,-0.0229,-0.0209,-0.0208,-0.0207,-0.0207,-0.0201,-0.0202,-0.0202,0,0,0,0,0,0,0,0,0,0,0,0,0,-0.0192,-0.0192,-0.0214,-0.0214,-0.0214,-0.0229,-0.0229,-0.0229,-0.0209,-0.0208,-0.0207,-0.0206,-0.0201,-0.0202,-0.0202,0,0,0,0,0,0,0,0,0,0,0,0,0,-0.0203,-0.0192,-0.0214,-0.0206,-0.0205,-0.0229,-0.0229,-0.0229,-0.0209,-0.0208,-0.0207,-0.0206,-0.0201,-0.0201,-0.0202,-0.0229,0,0,-0.0205,-0.0205,0,0,0,0,0,0,0,0,-0.0203,-0.0204,-0.0207,-0.0206,-0.0206,-0.0216,-0.0219,-0.0228,-0.0209,-0.0207,-0.0207,-0.0205,-0.0205,-0.0205,-0.0211,-0.0229,-0.0228,-0.0205,-0.0205,-0.0206,-0.0206,0,0,0,0,0,0,0,-0.0202,-0.0204,-0.022,-0.0207,-0.0207,-0.021,-0.021,-0.0221,-0.0212,-0.0208,-0.0206,-0.0208,-0.0204,-0.021,-0.021,-0.0228,-0.0205,-0.0205,-0.0206,-0.0206,-0.0276,-0.0277,0,0,0,0,0,0,-0.02,-0.0203,-0.0219,-0.022,-0.0202,-0.0211,-0.0212,-0.0214,-0.0212,-0.0211,-0.0209,-0.0207,-0.0209,-0.021,-0.021,-0.0254,-0.0206,-0.0206,-0.0207,-0.0274,-0.0276,-0.0278,0,0,0,0,0,0,-0.02,-0.0202,-0.0218,-0.0212,-0.0214,-0.0213,-0.0215,-0.0215,-0.0218,-0.0214,-0.0212,-0.0213,-0.0208,-0.0209,-0.0224,-0.0253,-0.0207,-0.0207,-0.0273,-0.0275,-0.0277,-0.0334,0,0,0,0,0,0,-0.0199,-0.0201,-0.0205,-0.0212,-0.0214,-0.0238,-0.0216,-0.0216,-0.0221,-0.0219,-0.0217,-0.0215,-0.0208,-0.0224,-0.0225,-0.0253,-0.0208,-0.0271,-0.0274,-0.0276,-0.0331,-0.0338,-0.0345,0,0,0,0,0,-0.0198,-0.0207,-0.0205,-0.0207,-0.0218,-0.0238,-0.0241,-0.0235,-0.0223,-0.0233,-0.023,-0.0215,-0.0241,-0.0225,-0.0227,-0.0256,-0.027,-0.0273,-0.0276,-0.0328,-0.0337,-0.0344,0,0,0,0,0,0,-0.0199,-0.0206,-0.0203,-0.0213,-0.0227,-0.0235,-0.0243,-0.024,-0.0247,-0.0242,-0.0232,-0.0231,-0.0256,-0.025,-0.0232,-0.0284,-0.0254,-0.0258,-0.0293,-0.0301,-0.0308,-0.0314,-0.0209,0,0,0,0,0,-0.0202,-0.021,-0.0219,-0.023,-0.0236,-0.0241,-0.0248,-0.0248,-0.0254,-0.0255,-0.0255,-0.0259,-0.0273,-0.028,-0.0288,-0.0317,-0.029,-0.0338,-0.0345,-0.0351,-0.0357,-0.0325,-0.0329,-0.0288,-0.0288,-0.0288,0,0,-0.0206,-0.0211,-0.0216,-0.0231,-0.0239,-0.0265,-0.0242,-0.0258,-0.0285,-0.0255,-0.0287,-0.0282,-0.0285,-0.0317,-0.0328,-0.0314,-0.0351,-0.0355,-0.0359,-0.0363,-0.0328,-0.0332,-0.0335,-0.029,-0.0289,-0.0289,0,0,-0.0228,-0.0223,-0.0242,-0.0257,-0.0274,-0.0281,-0.0288,-0.0301,-0.031,-0.0342,-0.0327,-0.0346,-0.0362,-0.0378,-0.0386,-0.0439,-0.0387,-0.0432,-0.0474,-0.0443,-0.0446,-0.0447,-0.0428,-0.0427,-0.0437,-0.0437,-0.0437,0,-0.0232,-0.0259,-0.0253,-0.028,-0.0299,-0.0292,-0.0327,-0.0341,-0.036,-0.0382,-0.036,-0.0404,-0.0401,-0.0452,-0.046,-0.0458,-0.0416,-0.0441,-0.045,-0.0451,-0.0452,-0.0431,-0.043,-0.0441,-0.044,-0.044,-0.044,0,-0.0272,-0.0297,-0.0311,-0.0343,-0.0364,-0.039,-0.041,-0.0434,-0.0441,-0.0459,-0.0504,-0.0502,-0.0528,-0.053,-0.0506,-0.0525,-0.0486,-0.0458,-0.0425,-0.046,-0.0436,-0.0434,-0.0445,-0.0444,-0.0443,-0.0442,0,0,-0.0273,-0.0328,-0.0334,-0.0368,-0.04,-0.0424,-0.0472,-0.0522,-0.0559,-0.0577,-0.0622,-0.0649,-0.0635,-0.0642,-0.0621,-0.0591,-0.0563,-0.0516,-0.0513,-0.049,-0.0479,-0.0399,-0.0389,-0.0508,-0.0508,-0.0508,-0.0463,0,-0.0308,-0.0374,-0.0392,-0.0463,-0.05,-0.0518,-0.0565,-0.0607,-0.0633,-0.0671,-0.0684,-0.0719,-0.0683,-0.0688,-0.0655,-0.0585,-0.0556,-0.0577,-0.0455,-0.0452,-0.0371,-0.0383,-0.0507,-0.0461,-0.046,-0.046,-0.0459,0,-0.0341,-0.0385,-0.0457,-0.0533,-0.055,-0.0592,-0.0665,-0.0709,-0.0759,-0.0779,-0.0812,-0.0802,-0.0807,-0.0744,-0.0667,-0.0667,-0.0576,-0.0515,-0.0511,-0.0413,-0.0367,-0.0417,-0.0454,-0.0455,-0.0455,-0.0455,-0.0456,0,-0.035,-0.0432,-0.0492,-0.0517,-0.0596,-0.064,-0.0687,-0.0748,-0.0779,-0.085,-0.0853,-0.0877,-0.0852,-0.0778,-0.0652,-0.0647,-0.052,-0.0513,-0.037,-0.0365,-0.0424,-0.0422,-0.0439,-0.0439,-0.0439,-0.0439,-0.0439,0,-0.0379,-0.043,-0.0505,-0.0541,-0.0617,-0.0669,-0.0744,-0.0797,-0.0843,-0.0862,-0.0902,-0.0882,-0.0837,-0.0756,-0.0665,-0.0503,-0.0539,-0.0379,-0.0343,-0.0452,-0.0454,-0.0423,-0.0421,-0.0437,-0.0438,-0.0438,-0.0438,0,-0.038,-0.0427,-0.0503,-0.0594,-0.0623,-0.0682,-0.0759,-0.0802,-0.0852,-0.0866,-0.0881,-0.0866,-0.0773,-0.071,-0.0576,-0.0496,-0.0381,-0.0305,-0.0434,-0.0407,-0.0253,-0.0256,-0.0185,-0.0182,-0.0179,-0.0177,-0.0175,0,-0.0387,-0.0424,-0.0524,-0.0563,-0.0609,-0.069,-0.0732,-0.0804,-0.0824,-0.0828,-0.0809,-0.0749,-0.0718,-0.0507,-0.0439,-0.0312,-0.0263,-0.0227,-0.0243,-0.0252,-0.0225,-0.0233,-0.0239,-0.0171,-0.017,-0.0169,-0.0169,0,-0.0396,-0.0427,-0.0484,-0.0559,-0.0617,-0.0674,-0.0731,-0.073,-0.0776,-0.0805,-0.0729,-0.0659,-0.0534,-0.0444,-0.0333,-0.0233,-0.0284,-0.0198,-0.0203,-0.0219,-0.0234,-0.0211,-0.0221,-0.0159,-0.016,-0.0161,-0.0162,0,-0.0389,-0.0422,-0.0484,-0.0549,-0.0611,-0.0639,-0.0679,-0.0678,-0.0695,-0.0688,-0.0643,-0.0569,-0.0538,-0.0394,-0.0289,-0.0199,-0.0178,-0.0158,-0.0166,-0.0176,-0.018,-0.0198,-0.008,0,0,0,0,0,-0.0378,-0.0407,-0.0467,-0.0537,-0.0592,-0.0625,-0.0662,-0.0687,-0.0697,-0.0631,-0.0641,-0.0533,-0.0386,-0.0338,-0.0229,-0.0235,-0.0166,-0.0104,-0.0149,-0.0105,-0.0116,-0.0114,0,0,0,0,0,0,-0.0373,-0.042,-0.0454,-0.0502,-0.054,-0.0594,-0.0614,-0.0625,-0.0588,-0.0589,-0.0516,-0.0494,-0.0362,-0.0447,-0.0225,-0.02,-0.0208,-0.0051,-0.0048,-0.0099,-0.0109,-0.0118,-0.012,0,0,0,0,0]}]]